This is the latest recevied weather packets stored in our database for station/object SP1BMW-13. If no packets are shown the sender has not sent any weather packets the latest 10 day(s).
| Time | Temp. | Humidity | Pressure | Rain* | Wind** | Luminosity | Snow |
|---|---|---|---|---|---|---|---|
| 1777725804 | 25.56° C | 28% | 1018.7 hPa | 0 mm | 0.89 m/s, 100° | 635 W/m² | - |
| 1777725744 | 25.56° C | 27% | 1018.7 hPa | 0 mm | 0.45 m/s, 94° | 637 W/m² | - |
| 1777725685 | 25.56° C | 26% | 1018.7 hPa | 0 mm | 1.34 m/s, 303° | 638 W/m² | - |
| 1777725625 | 25.56° C | 25% | 1018.6 hPa | 0 mm | 2.24 m/s, 295° | 640 W/m² | - |
| 1777725564 | 25.56° C | 25% | 1018.7 hPa | 0 mm | 2.24 m/s, 281° | 643 W/m² | - |
| 1777725505 | 26.11° C | 26% | 1018.7 hPa | 0 mm | 1.34 m/s, 320° | 646 W/m² | - |
| 1777725446 | 26.11° C | 26% | 1018.5 hPa | 0 mm | 0.89 m/s, 333° | 648 W/m² | - |
| 1777725385 | 26.11° C | 25% | 1018.8 hPa | 0 mm | 1.79 m/s, 316° | 647 W/m² | - |
| 1777725324 | 26.11° C | 26% | 1018.6 hPa | 0 mm | 2.68 m/s, 270° | 649 W/m² | - |
| 1777725264 | 25.56° C | 26% | 1018.6 hPa | 0 mm | 1.79 m/s, 198° | 651 W/m² | - |
| 1777725204 | 25.56° C | 26% | 1018.7 hPa | 0 mm | 1.79 m/s, 131° | 654 W/m² | - |
| 1777725145 | 25.56° C | 26% | 1018.8 hPa | 0 mm | 0.89 m/s, 312° | 653 W/m² | - |
| 1777725085 | 25.56° C | 27% | 1018.7 hPa | 0 mm | 1.34 m/s, 285° | 656 W/m² | - |
| 1777725025 | 26.11° C | 26% | 1018.7 hPa | 0 mm | 1.79 m/s, 309° | 657 W/m² | - |
| 1777724965 | 26.11° C | 26% | 1018.8 hPa | 0 mm | 2.24 m/s, 89° | 658 W/m² | - |
| 1777724905 | 25.56° C | 26% | 1018.8 hPa | 0 mm | 2.24 m/s, 164° | 659 W/m² | - |
| 1777724845 | 25.56° C | 26% | 1018.8 hPa | 0 mm | 1.79 m/s, 299° | 659 W/m² | - |
| 1777724785 | 25.56° C | 26% | 1018.9 hPa | 0 mm | 0.89 m/s, 282° | 659 W/m² | - |
| 1777724725 | 25.56° C | 26% | 1018.8 hPa | 0 mm | 1.79 m/s, 98° | 659 W/m² | - |
| 1777724665 | 25.56° C | 27% | 1018.8 hPa | 0 mm | 1.34 m/s, 72° | 662 W/m² | - |
| 1777724605 | 25.56° C | 30% | 1018.8 hPa | 0 mm | 0.45 m/s, 37° | 662 W/m² | - |
| 1777724545 | 25.56° C | 27% | 1018.8 hPa | 0 mm | 0.45 m/s, 232° | 663 W/m² | - |
| 1777724486 | 25.56° C | 27% | 1019 hPa | 0 mm | 0.89 m/s, 204° | 665 W/m² | - |
| 1777724425 | 25.56° C | 29% | 1019 hPa | 0 mm | 0 m/s | 665 W/m² | - |
| 1777724365 | 25.56° C | 27% | 1018.9 hPa | 0 mm | 1.34 m/s, 48° | 666 W/m² | - |
* Rain latest hour (hover to see other rain measurements)
** Current wind speed in m/s (hover to see current wind gust speed)